QPF
0.00 0.00 0.00 0.00 0.00 0.00 0.00 0.00 0.01 0.01 0.01 0.01 0.01 0.00 0.00 0.00 0.00 0.00 0.00 0.00 0.00 0.00 0.00 0.00 0.00 0.00 0.00 0.00 0.00 0.00 0.00 0.00 0.00 0.00 0.00 0.00 0.00 0.00 0.00 0.00 0.00 0.00 0.00
0.00 0.00 0.00 0.00 0.00 0.00 0.00 0.00 0.00 0.01 0.01 0.01 0.01 0.00 0.00 0.00 0.00 0.00 0.00 0.00 0.00 0.00 0.00 0.00 0.00 0.00 0.00 0.00 0.00 0.00 0.00 0.00 0.00 0.00 0.00 0.00 0.00 0.00 0.00 0.00 0.00 0.00 0.00
0.00 0.00 0.00 0.00 0.00 0.00 0.00 0.00 0.00 0.01 0.01 0.00 0.01 0.00 0.00 0.00 0.00 0.00 0.00 0.00 0.00 0.00 0.00 0.00 0.00 0.00 0.00 0.00 0.00 0.00 0.00 0.00 0.00 0.00 0.00 0.00 0.00 0.00 0.00 0.00 0.00 0.00 0.00
0.00 0.00 0.00 0.00 0.00 0.00 0.00 0.00 0.00 0.01 0.01 0.01 0.00 0.00 0.00 0.00 0.00 0.00 0.00 0.00 0.00 0.00 0.00 0.00 0.00 0.00 0.00 0.00 0.00 0.00 0.00 0.00 0.00 0.00 0.00 0.00 0.00 0.00 0.00 0.00 0.00 0.00 0.00
0.00 0.00 0.00 0.00 0.00 0.00 0.00 0.00 0.00 0.00 0.00 0.00 0.00 0.00 0.00 0.00 0.00 0.00 0.00 0.00 0.00 0.00 0.00 0.00 0.00 0.00 0.00 0.00 0.00 0.00 0.00 0.00 0.00 0.00 0.00 0.00 0.00 0.00 0.00 0.00 0.00 0.00 0.00
0.00 0.00 0.00 0.00 0.00 0.00 0.00 0.00 0.00 0.00 0.00 0.00 0.00 0.00 0.00 0.00 0.00 0.00 0.00 0.00 0.00 0.00 0.00 0.00 0.00 0.00 0.00 0.00 0.00 0.00 0.00 0.00 0.00 0.00 0.00 0.00 0.00 0.00 0.00 0.00 0.00 0.01 0.00
0.00 0.00 0.00 0.00 0.00 0.00 0.00 0.00 0.00 0.00 0.00 0.00 0.00 0.00 0.00 0.00 0.00 0.00 0.00 0.00 0.00 0.00 0.00 0.00 0.00 0.00 0.00 0.00 0.00 0.00 0.00 0.00 0.00 0.00 0.00 0.00 0.00 0.00 0.01 0.01 0.01 0.01 0.01
0.00 0.00 0.00 0.00 0.00 0.00 0.00 0.00 0.00 0.00 0.00 0.00 0.00 0.00 0.00 0.00 0.00 0.00 0.00 0.00 0.00 0.00 0.00 0.00 0.00 0.00 0.00 0.00 0.00 0.00 0.00 0.00 0.00 0.00 0.00 0.00 0.00 0.01 0.01 0.02 0.03 0.03 0.02
0.00 0.00 0.00 0.00 0.00 0.00 0.00 0.00 0.00 0.00 0.00 0.00 0.00 0.00 0.00 0.00 0.00 0.00 0.00 0.00 0.00 0.00 0.00 0.00 0.00 0.00 0.00 0.00 0.00 0.00 0.00 0.00 0.00 0.00 0.01 0.01 0.01 0.01 0.02 0.02 0.02 0.02 0.02
0.00 0.00 0.00 0.00 0.00 0.00 0.00 0.00 0.00 0.00 0.00 0.00 0.00 0.00 0.00 0.00 0.00 0.00 0.00 0.00 0.00 0.00 0.00 0.00 0.00 0.00 0.00 0.00 0.00 0.00 0.00 0.00 0.00 0.00 0.00 0.00 0.00 0.00 0.00 0.01 0.01 0.02 0.02
0.00 0.00 0.00 0.00 0.00 0.00 0.00 0.00 0.00 0.00 0.00 0.00 0.00 0.00 0.00 0.00 0.00 0.00 0.00 0.00 0.00 0.00 0.00 0.00 0.00 0.00 0.00 0.00 0.00 0.00 0.00 0.01 0.01 0.01 0.01 0.00 0.00 0.00 0.00 0.00 0.01 0.02 0.03
0.00 0.00 0.00 0.00 0.00 0.00 0.00 0.00 0.00 0.00 0.00 0.00 0.00 0.00 0.00 0.00 0.00 0.00 0.00 0.00 0.00 0.00 0.00 0.00 0.00 0.00 0.00 0.00 0.00 0.00 0.00 0.01 0.00 0.00 0.00 0.00 0.00 0.00 0.00 0.00 0.00 0.01 0.01
0.00 0.00 0.00 0.00 0.00 0.00 0.00 0.00 0.00 0.00 0.00 0.00 0.00 0.00 0.00 0.00 0.00 0.00 0.00 0.00 0.00 0.00 0.00 0.00 0.00 0.00 0.00 0.00 0.00 0.00 0.00 0.00 0.00 0.00 0.00 0.00 0.00 0.00 0.00 0.00 0.00 0.00 0.00
0.00 0.00 0.00 0.00 0.00 0.00 0.00 0.00 0.00 0.00 0.00 0.00 0.00 0.00 0.00 0.00 0.00 0.00 0.00 0.00 0.00 0.00 0.00 0.00 0.00 0.00 0.00 0.00 0.00 0.00 0.00 0.00 0.00 0.01 0.00 0.00 0.00 0.00 0.00 0.00 0.00 0.00 0.00
0.00 0.00 0.00 0.00 0.00 0.00 0.00 0.00 0.00 0.00 0.00 0.00 0.00 0.00 0.00 0.00 0.00 0.00 0.00 0.00 0.00 0.00 0.00 0.00 0.00 0.00 0.00 0.00 0.00 0.00 0.00 0.00 0.00 0.00 0.00 0.00 0.00 0.00 0.00 0.00 0.01 0.00 0.00
0.00 0.00 0.00 0.00 0.00 0.00 0.00 0.00 0.00 0.00 0.00 0.00 0.00 0.00 0.00 0.00 0.00 0.00 0.00 0.00 0.00 0.00 0.00 0.00 0.00 0.00 0.00 0.00 0.00 0.00 0.00 0.00 0.00 0.00 0.00 0.00 0.00 0.00 0.00 0.00 0.01 0.00 0.00
0.00 0.00 0.00 0.00 0.00 0.00 0.00 0.00 0.00 0.00 0.00 0.00 0.00 0.00 0.00 0.00 0.00 0.00 0.00 0.00 0.00 0.00 0.00 0.00 0.00 0.00 0.00 0.00 0.00 0.00 0.00 0.00 0.00 0.00 0.00 0.00 0.00 0.00 0.00 0.00 0.00 0.00 0.00
0.00 0.00 0.00 0.00 0.00 0.00 0.00 0.00 0.00 0.00 0.00 0.00 0.00 0.00 0.00 0.00 0.00 0.00 0.00 0.00 0.00 0.00 0.00 0.00 0.00 0.00 0.00 0.00 0.00 0.00 0.00 0.00 0.00 0.00 0.00 0.00 0.00 0.00 0.01 0.00 0.00 0.00 0.00
0.00 0.00 0.00 0.00 0.00 0.00 0.00 0.00 0.00 0.00 0.00 0.00 0.00 0.00 0.00 0.00 0.00 0.00 0.00 0.00 0.00 0.00 0.00 0.00 0.00 0.00 0.00 0.00 0.00 0.00 0.00 0.00 0.00 0.00 0.00 0.00 0.00 0.01 0.01 0.01 0.01 0.00 0.01
0.00 0.00 0.00 0.00 0.00 0.00 0.00 0.00 0.00 0.00 0.00 0.00 0.00 0.00 0.00 0.00 0.00 0.00 0.00 0.00 0.00 0.00 0.00 0.00 0.00 0.00 0.00 0.00 0.00 0.00 0.00 0.00 0.00 0.00 0.00 0.00 0.00 0.01 0.01 0.01 0.01 0.01 0.00
0.00 0.00 0.00 0.00 0.00 0.00 0.00 0.00 0.00 0.00 0.00 0.00 0.00 0.00 0.00 0.00 0.00 0.00 0.00 0.00 0.00 0.00 0.00 0.00 0.00 0.00 0.00 0.00 0.00 0.00 0.00 0.00 0.00 0.00 0.00 0.00 0.00 0.01 0.01 0.01 0.01 0.01 0.00
0.00 0.00 0.00 0.00 0.00 0.00 0.00 0.00 0.00 0.00 0.00 0.00 0.00 0.00 0.00 0.00 0.00 0.00 0.00 0.00 0.00 0.00 0.00 0.00 0.00 0.00 0.00 0.00 0.00 0.00 0.00 0.00 0.00 0.00 0.00 0.00 0.01 0.01 0.01 0.01 0.01 0.01 0.00
0.00 0.00 0.00 0.00 0.00 0.00 0.00 0.00 0.00 0.00 0.00 0.00 0.00 0.00 0.00 0.00 0.00 0.00 0.00 0.00 0.00 0.00 0.00 0.00 0.00 0.00 0.00 0.00 0.00 0.00 0.00 0.00 0.00 0.00 0.01 0.01 0.01 0.01 0.01 0.01 0.01 0.01 0.00
0.00 0.00 0.00 0.00 0.00 0.00 0.00 0.00 0.00 0.00 0.00 0.00 0.00 0.00 0.00 0.00 0.00 0.00 0.00 0.00 0.00 0.00 0.00 0.00 0.00 0.00 0.00 0.00 0.00 0.00 0.00 0.00 0.00 0.00 0.01 0.01 0.01 0.01 0.01 0.01 0.01 0.00 0.00
0.00 0.00 0.00 0.00 0.00 0.00 0.00 0.00 0.00 0.00 0.00 0.00 0.00 0.00 0.00 0.00 0.00 0.00 0.00 0.00 0.00 0.00 0.00 0.00 0.00 0.00 0.00 0.00 0.00 0.00 0.00 0.00 0.01 0.01 0.01 0.01 0.01 0.01 0.01 0.01 0.01 0.00 0.00
0.00 0.00 0.00 0.00 0.00 0.00 0.00 0.00 0.00 0.00 0.00 0.00 0.00 0.00 0.00 0.00 0.00 0.00 0.00 0.00 0.00 0.00 0.00 0.00 0.00 0.00 0.00 0.00 0.00 0.00 0.00 0.01 0.01 0.01 0.02 0.02 0.01 0.01 0.01 0.01 0.01 0.00 0.00
MSLP
1003.17 1003.83 1004.59 1005.42 1006.30 1007.19 1008.08 1008.96 1009.82 1010.68 1011.52 1012.36 1013.19 1014.00 1014.79 1015.53 1016.25 1016.92 1017.56 1018.16 1018.75 1019.33 1019.90 1020.46 1021.01 1021.53 1022.01 1022.44 1022.82 1023.13 1023.38 1023.57 1023.69 1023.74 1023.74 1023.68 1023.56 1023.39 1023.19 1022.94 1022.68 1022.40 1022.12
1002.99 1003.60 1004.31 1005.10 1005.95 1006.82 1007.70 1008.57 1009.44 1010.28 1011.12 1011.93 1012.73 1013.51 1014.25 1014.97 1015.65 1016.31 1016.94 1017.55 1018.14 1018.73 1019.32 1019.89 1020.45 1020.99 1021.49 1021.95 1022.36 1022.71 1023.00 1023.22 1023.38 1023.47 1023.48 1023.43 1023.31 1023.13 1022.91 1022.65 1022.36 1022.07 1021.77
1002.91 1003.50 1004.17 1004.93 1005.74 1006.58 1007.43 1008.28 1009.11 1009.92 1010.71 1011.48 1012.23 1012.96 1013.66 1014.34 1015.00 1015.64 1016.26 1016.88 1017.48 1018.08 1018.68 1019.26 1019.82 1020.37 1020.88 1021.35 1021.78 1022.16 1022.48 1022.74 1022.93 1023.05 1023.09 1023.05 1022.94 1022.77 1022.53 1022.25 1021.96 1021.65 1021.35
1002.86 1003.44 1004.11 1004.84 1005.62 1006.42 1007.23 1008.03 1008.82 1009.58 1010.31 1011.02 1011.71 1012.38 1013.04 1013.69 1014.32 1014.95 1015.58 1016.20 1016.81 1017.41 1018.01 1018.58 1019.14 1019.67 1020.17 1020.64 1021.07 1021.46 1021.80 1022.09 1022.32 1022.47 1022.54 1022.52 1022.43 1022.25 1022.02 1021.75 1021.45 1021.14 1020.85
1002.78 1003.39 1004.06 1004.78 1005.54 1006.31 1007.08 1007.83 1008.56 1009.26 1009.93 1010.58 1011.21 1011.83 1012.45 1013.06 1013.69 1014.31 1014.94 1015.56 1016.17 1016.77 1017.35 1017.90 1018.42 1018.92 1019.39 1019.83 1020.24 1020.63 1020.98 1021.28 1021.53 1021.71 1021.81 1021.83 1021.76 1021.60 1021.39 1021.12 1020.84 1020.54 1020.26
1002.65 1003.29 1003.99 1004.71 1005.46 1006.21 1006.95 1007.66 1008.34 1008.99 1009.61 1010.20 1010.78 1011.36 1011.94 1012.53 1013.14 1013.76 1014.38 1014.99 1015.59 1016.17 1016.72 1017.23 1017.70 1018.14 1018.56 1018.95 1019.33 1019.69 1020.03 1020.34 1020.61 1020.81 1020.94 1020.99 1020.95 1020.83 1020.64 1020.40 1020.14 1019.87 1019.61
1002.45 1003.13 1003.86 1004.61 1005.37 1006.11 1006.84 1007.53 1008.18 1008.79 1009.37 1009.93 1010.47 1011.01 1011.56 1012.13 1012.72 1013.32 1013.92 1014.51 1015.09 1015.63 1016.12 1016.58 1016.99 1017.36 1017.71 1018.05 1018.37 1018.70 1019.02 1019.32 1019.60 1019.83 1019.99 1020.07 1020.06 1019.98 1019.83 1019.62 1019.39 1019.15 1018.91
1002.19 1002.92 1003.69 1004.47 1005.25 1006.01 1006.75 1007.44 1008.09 1008.69 1009.25 1009.78 1010.29 1010.81 1011.33 1011.86 1012.42 1012.99 1013.55 1014.11 1014.64 1015.13 1015.57 1015.96 1016.30 1016.60 1016.88 1017.16 1017.43 1017.72 1018.01 1018.31 1018.58 1018.83 1019.01 1019.12 1019.16 1019.11 1019.00 1018.83 1018.63 1018.42 1018.21
1001.91 1002.69 1003.50 1004.32 1005.13 1005.93 1006.70 1007.41 1008.08 1008.68 1009.24 1009.76 1010.25 1010.73 1011.21 1011.71 1012.22 1012.73 1013.25 1013.75 1014.22 1014.65 1015.03 1015.36 1015.64 1015.89 1016.11 1016.33 1016.56 1016.81 1017.09 1017.37 1017.64 1017.89 1018.09 1018.23 1018.29 1018.27 1018.19 1018.06 1017.89 1017.72 1017.54
1001.66 1002.48 1003.33 1004.19 1005.05 1005.89 1006.69 1007.44 1008.13 1008.76 1009.32 1009.83 1010.30 1010.75 1011.18 1011.62 1012.06 1012.52 1012.97 1013.40 1013.81 1014.19 1014.52 1014.80 1015.04 1015.25 1015.44 1015.63 1015.83 1016.06 1016.30 1016.57 1016.83 1017.08 1017.28 1017.43 1017.51 1017.51 1017.46 1017.35 1017.21 1017.06 1016.92
1001.48 1002.33 1003.21 1004.11 1005.01 1005.89 1006.73 1007.52 1008.24 1008.89 1009.46 1009.96 1010.40 1010.81 1011.18 1011.55 1011.93 1012.30 1012.68 1013.05 1013.41 1013.75 1014.04 1014.30 1014.53 1014.73 1014.91 1015.09 1015.28 1015.49 1015.72 1015.97 1016.21 1016.43 1016.62 1016.76 1016.84 1016.85 1016.81 1016.73 1016.61 1016.48 1016.36
1001.39 1002.27 1003.17 1004.09 1005.02 1005.93 1006.81 1007.63 1008.37 1009.04 1009.61 1010.10 1010.51 1010.87 1011.18 1011.48 1011.78 1012.08 1012.40 1012.72 1013.04 1013.36 1013.65 1013.92 1014.16 1014.38 1014.58 1014.77 1014.97 1015.17 1015.37 1015.59 1015.79 1015.98 1016.13 1016.24 1016.30 1016.30 1016.26 1016.19 1016.09 1015.98 1015.88
1001.40 1002.29 1003.21 1004.15 1005.09 1006.02 1006.91 1007.75 1008.52 1009.19 1009.76 1010.23 1010.61 1010.92 1011.18 1011.41 1011.65 1011.89 1012.16 1012.45 1012.76 1013.08 1013.40 1013.70 1013.99 1014.25 1014.49 1014.70 1014.90 1015.09 1015.27 1015.43 1015.58 1015.71 1015.80 1015.86 1015.88 1015.86 1015.81 1015.73 1015.65 1015.56 1015.48
1001.49 1002.40 1003.32 1004.25 1005.19 1006.13 1007.03 1007.88 1008.65 1009.32 1009.89 1010.34 1010.69 1010.97 1011.18 1011.37 1011.57 1011.77 1012.02 1012.30 1012.63 1012.98 1013.34 1013.71 1014.05 1014.37 1014.65 1014.89 1015.09 1015.25 1015.38 1015.48 1015.55 1015.60 1015.61 1015.60 1015.56 1015.50 1015.43 1015.36 1015.28 1015.22 1015.17
1001.65 1002.55 1003.47 1004.39 1005.33 1006.26 1007.16 1008.01 1008.78 1009.45 1010.01 1010.46 1010.80 1011.05 1011.25 1011.42 1011.60 1011.80 1012.05 1012.35 1012.71 1013.11 1013.53 1013.96 1014.36 1014.73 1015.05 1015.30 1015.49 1015.61 1015.68 1015.69 1015.67 1015.61 1015.53 1015.43 1015.33 1015.23 1015.13 1015.05 1014.99 1014.95 1014.93
1001.83 1002.74 1003.64 1004.56 1005.49 1006.41 1007.30 1008.15 1008.93 1009.60 1010.17 1010.62 1010.97 1011.23 1011.44 1011.62 1011.80 1012.02 1012.29 1012.63 1013.04 1013.49 1013.96 1014.44 1014.90 1015.30 1015.63 1015.87 1016.03 1016.09 1016.08 1015.99 1015.86 1015.69 1015.51 1015.33 1015.16 1015.01 1014.90 1014.81 1014.77 1014.75 1014.75
1002.03 1002.93 1003.84 1004.75 1005.67 1006.59 1007.49 1008.34 1009.12 1009.81 1010.40 1010.87 1011.25 1011.54 1011.77 1011.98 1012.20 1012.45 1012.76 1013.14 1013.58 1014.07 1014.58 1015.09 1015.57 1015.98 1016.30 1016.51 1016.61 1016.61 1016.50 1016.32 1016.07 1015.80 1015.52 1015.26 1015.03 1014.85 1014.71 1014.63 1014.59 1014.60 1014.63
1002.24 1003.14 1004.05 1004.97 1005.89 1006.81 1007.72 1008.58 1009.38 1010.10 1010.72 1011.23 1011.65 1011.98 1012.26 1012.51 1012.77 1013.06 1013.40 1013.81 1014.27 1014.78 1015.30 1015.82 1016.28 1016.67 1016.95 1017.11 1017.15 1017.06 1016.86 1016.58 1016.25 1015.89 1015.53 1015.21 1014.93 1014.71 1014.57 1014.49 1014.46 1014.48 1014.53
1002.46 1003.38 1004.30 1005.23 1006.17 1007.11 1008.03 1008.91 1009.74 1010.49 1011.14 1011.70 1012.16 1012.54 1012.87 1013.17 1013.47 1013.79 1014.15 1014.57 1015.03 1015.52 1016.02 1016.50 1016.92 1017.26 1017.48 1017.58 1017.54 1017.38 1017.11 1016.75 1016.35 1015.93 1015.52 1015.15 1014.84 1014.61 1014.46 1014.38 1014.37 1014.40 1014.45
1002.72 1003.66 1004.60 1005.56 1006.52 1007.48 1008.42 1009.33 1010.18 1010.96 1011.65 1012.25 1012.76 1013.18 1013.55 1013.89 1014.21 1014.54 1014.91 1015.30 1015.73 1016.18 1016.63 1017.04 1017.40 1017.66 1017.81 1017.84 1017.74 1017.52 1017.20 1016.80 1016.36 1015.90 1015.47 1015.09 1014.77 1014.54 1014.39 1014.32 1014.30 1014.34 1014.39
1003.04 1004.00 1004.97 1005.95 1006.94 1007.92 1008.88 1009.81 1010.69 1011.49 1012.21 1012.84 1013.38 1013.84 1014.23 1014.58 1014.92 1015.24 1015.58 1015.94 1016.31 1016.69 1017.06 1017.39 1017.66 1017.84 1017.92 1017.89 1017.74 1017.48 1017.13 1016.72 1016.28 1015.83 1015.41 1015.04 1014.73 1014.51 1014.36 1014.29 1014.27 1014.30 1014.35
1003.42 1004.41 1005.41 1006.42 1007.43 1008.43 1009.41 1010.34 1011.23 1012.04 1012.77 1013.41 1013.96 1014.43 1014.84 1015.19 1015.51 1015.81 1016.11 1016.41 1016.71 1017.01 1017.28 1017.52 1017.70 1017.80 1017.82 1017.74 1017.56 1017.29 1016.95 1016.56 1016.15 1015.73 1015.34 1015.01 1014.73 1014.52 1014.38 1014.31 1014.28 1014.30 1014.33
1003.88 1004.90 1005.93 1006.96 1007.98 1008.99 1009.96 1010.89 1011.76 1012.56 1013.28 1013.91 1014.45 1014.92 1015.32 1015.66 1015.95 1016.22 1016.47 1016.70 1016.92 1017.13 1017.31 1017.46 1017.56 1017.60 1017.56 1017.45 1017.26 1017.01 1016.70 1016.36 1016.00 1015.64 1015.31 1015.01 1014.77 1014.59 1014.46 1014.38 1014.35 1014.34 1014.36
1004.42 1005.46 1006.51 1007.55 1008.57 1009.57 1010.52 1011.42 1012.25 1013.02 1013.70 1014.31 1014.83 1015.28 1015.65 1015.97 1016.23 1016.46 1016.66 1016.83 1016.98 1017.11 1017.22 1017.29 1017.32 1017.30 1017.23 1017.10 1016.93 1016.70 1016.44 1016.16 1015.86 1015.58 1015.31 1015.07 1014.87 1014.71 1014.60 1014.52 1014.47 1014.45 1014.45
1005.03 1006.09 1007.15 1008.18 1009.19 1010.15 1011.06 1011.91 1012.69 1013.40 1014.04 1014.60 1015.09 1015.50 1015.85 1016.14 1016.37 1016.57 1016.73 1016.85 1016.94 1017.01 1017.05 1017.06 1017.04 1016.98 1016.89 1016.76 1016.60 1016.41 1016.21 1015.99 1015.77 1015.55 1015.35 1015.17 1015.01 1014.89 1014.78 1014.71 1014.65 1014.62 1014.61
1005.72 1006.78 1007.83 1008.84 1009.81 1010.73 1011.58 1012.36 1013.07 1013.72 1014.29 1014.80 1015.24 1015.62 1015.93 1016.20 1016.41 1016.58 1016.71 1016.80 1016.85 1016.88 1016.87 1016.84 1016.78 1016.69 1016.58 1016.46 1016.32 1016.16 1016.01 1015.85 1015.69 1015.54 1015.41 1015.28 1015.17 1015.08 1015.00 1014.93 1014.88 1014.85 1014.82
Thickness
5664 5660 5655 5650 5644 5638 5632 5625 5619 5613 5606 5598 5592 5584 5577 5570 5562 5555 5548 5540 5533 5525 5518 5512 5505 5499 5492 5485 5478 5471 5464 5457 5453 5453 5447 5443 5438 5432 5428 5423 5417 5412 5408
5658 5654 5649 5643 5638 5632 5626 5620 5614 5607 5601 5594 5587 5580 5573 5565 5558 5551 5543 5535 5528 5520 5513 5506 5499 5492 5485 5478 5470 5463 5457 5450 5443 5441 5438 5432 5427 5422 5417 5411 5405 5399 5393
5650 5646 5641 5636 5631 5626 5620 5614 5607 5601 5594 5587 5581 5574 5568 5561 5553 5546 5539 5531 5524 5516 5509 5501 5493 5485 5478 5471 5464 5456 5449 5443 5435 5429 5426 5421 5415 5409 5403 5398 5392 5385 5379
5642 5639 5635 5630 5626 5620 5614 5607 5601 5595 5588 5581 5575 5569 5563 5556 5548 5541 5533 5525 5518 5510 5503 5495 5488 5480 5473 5465 5457 5449 5442 5434 5426 5418 5414 5409 5403 5397 5388 5383 5379 5372 5366
5634 5631 5628 5623 5618 5612 5606 5600 5594 5588 5582 5575 5569 5562 5556 5549 5543 5535 5527 5519 5511 5503 5495 5488 5482 5475 5468 5460 5452 5443 5434 5426 5417 5409 5404 5398 5391 5383 5375 5369 5364 5360 5353
5626 5623 5618 5614 5609 5604 5598 5592 5586 5580 5574 5567 5562 5556 5549 5544 5538 5530 5522 5513 5505 5497 5489 5481 5474 5467 5460 5454 5446 5439 5429 5419 5409 5401 5394 5386 5380 5371 5364 5356 5349 5344 5341
5617 5614 5610 5606 5601 5596 5590 5584 5578 5572 5566 5560 5554 5548 5543 5537 5531 5524 5516 5507 5499 5491 5483 5474 5467 5460 5452 5444 5438 5431 5422 5412 5404 5394 5384 5375 5368 5361 5353 5346 5337 5329 5324
5609 5605 5601 5597 5592 5587 5582 5576 5570 5564 5559 5552 5546 5541 5535 5529 5523 5517 5509 5500 5491 5484 5475 5467 5459 5451 5443 5436 5429 5420 5411 5402 5394 5385 5376 5368 5359 5351 5342 5334 5327 5320 5314
5601 5598 5594 5590 5585 5579 5574 5568 5562 5556 5550 5544 5538 5532 5526 5520 5515 5509 5501 5491 5483 5475 5467 5459 5451 5443 5437 5430 5421 5412 5403 5393 5384 5375 5367 5358 5350 5341 5332 5323 5314 5306 5302
5596 5592 5588 5583 5578 5573 5566 5560 5553 5548 5541 5535 5528 5523 5518 5512 5507 5501 5494 5484 5475 5466 5458 5450 5443 5436 5429 5422 5412 5402 5392 5384 5375 5366 5356 5347 5338 5328 5319 5310 5300 5292 5286
5588 5583 5579 5574 5570 5564 5557 5550 5544 5538 5531 5524 5518 5513 5508 5503 5498 5493 5486 5477 5468 5458 5449 5441 5434 5428 5421 5413 5403 5392 5383 5376 5365 5355 5346 5336 5327 5317 5308 5299 5289 5280 5274
5579 5574 5569 5564 5559 5554 5547 5540 5534 5528 5521 5514 5508 5501 5496 5492 5488 5483 5477 5470 5461 5451 5442 5434 5426 5419 5411 5402 5392 5383 5375 5365 5354 5344 5334 5325 5316 5307 5299 5291 5282 5274 5267
5570 5565 5559 5554 5549 5544 5538 5531 5524 5519 5512 5505 5499 5492 5486 5481 5477 5474 5467 5460 5452 5443 5434 5427 5418 5410 5401 5390 5381 5373 5363 5352 5342 5332 5324 5315 5306 5298 5290 5282 5275 5268 5262
5561 5554 5549 5544 5538 5533 5528 5523 5517 5510 5504 5497 5491 5484 5477 5472 5466 5462 5456 5449 5442 5433 5424 5416 5408 5398 5388 5379 5369 5359 5349 5340 5331 5322 5314 5305 5296 5288 5280 5273 5266 5260 5254
5552 5546 5540 5535 5529 5523 5517 5513 5508 5503 5499 5492 5485 5478 5470 5463 5460 5455 5447 5440 5431 5423 5413 5403 5393 5384 5374 5365 5355 5346 5338 5329 5320 5312 5303 5294 5286 5279 5272 5265 5258 5252 5245
5544 5537 5531 5525 5519 5513 5507 5500 5497 5494 5490 5486 5480 5473 5466 5461 5454 5448 5440 5432 5423 5415 5403 5392 5382 5373 5363 5354 5345 5336 5327 5318 5310 5302 5293 5284 5276 5269 5263 5257 5251 5244 5239
5540 5531 5523 5517 5511 5505 5499 5493 5485 5480 5478 5473 5469 5463 5457 5451 5444 5437 5429 5421 5412 5404 5391 5381 5371 5362 5353 5344 5334 5325 5317 5308 5300 5291 5282 5274 5268 5262 5256 5250 5245 5239 5234
5529 5523 5516 5509 5503 5496 5490 5484 5478 5472 5464 5457 5455 5451 5445 5439 5433 5426 5418 5409 5398 5389 5379 5370 5361 5352 5342 5333 5324 5315 5307 5298 5289 5281 5274 5267 5261 5255 5250 5244 5239 5234 5230
5519 5512 5505 5499 5492 5486 5480 5474 5467 5461 5454 5447 5441 5437 5433 5427 5421 5413 5406 5396 5386 5377 5368 5359 5351 5342 5333 5324 5315 5306 5297 5289 5281 5274 5267 5261 5255 5249 5244 5239 5235 5232 5228
5507 5503 5496 5489 5482 5475 5469 5463 5457 5450 5444 5437 5432 5426 5420 5414 5406 5399 5392 5383 5375 5366 5358 5349 5341 5332 5324 5315 5306 5297 5289 5282 5274 5267 5261 5256 5250 5245 5240 5235 5231 5227 5223
5497 5491 5486 5478 5472 5465 5459 5453 5446 5440 5434 5427 5421 5417 5413 5404 5397 5389 5381 5373 5364 5356 5348 5340 5331 5323 5314 5305 5297 5289 5282 5275 5269 5263 5257 5251 5246 5241 5236 5232 5228 5224 5220
5487 5480 5474 5467 5461 5455 5449 5443 5436 5430 5423 5417 5410 5406 5402 5393 5385 5378 5370 5363 5354 5347 5339 5330 5322 5314 5306 5297 5289 5282 5276 5270 5264 5258 5252 5247 5241 5237 5232 5228 5224 5221 5218
5476 5469 5462 5456 5451 5447 5438 5432 5425 5419 5413 5406 5400 5395 5389 5382 5375 5367 5360 5352 5344 5336 5329 5321 5313 5305 5298 5290 5284 5277 5271 5266 5260 5254 5248 5243 5238 5233 5229 5225 5222 5219 5217
5465 5459 5453 5446 5440 5433 5427 5420 5414 5409 5403 5396 5390 5384 5378 5371 5364 5357 5349 5341 5334 5326 5319 5312 5305 5298 5291 5284 5278 5272 5267 5262 5256 5251 5245 5240 5235 5230 5227 5224 5221 5219 5217
5454 5448 5442 5435 5429 5422 5416 5410 5404 5398 5393 5387 5381 5375 5368 5361 5353 5346 5338 5331 5324 5317 5310 5303 5296 5290 5284 5278 5273 5267 5262 5258 5253 5248 5243 5238 5233 5229 5226 5223 5221 5218 5216
5442 5436 5430 5424 5418 5412 5406 5400 5394 5388 5382 5377 5371 5364 5357 5350 5343 5335 5328 5321 5314 5308 5301 5295 5289 5283 5278 5272 5267 5262 5258 5254 5250 5246 5241 5237 5232 5229 5225 5223 5220 5219 5217